Ourzdine, Morocco

12:47 PM WET on January 19, 2018 (GMT +0000)
Ourzdine

Weather History for 60230 - September, 2013

Change the Weather History Date:

Wednesday, September 11, 2013

  Actual Average Record
Temperature  
Mean Temperature 78 °F -  
Max Temperature 91 °F 85 °F - ()
Min Temperature 65 °F 62 °F - ()
Cooling Degree Days 13    
Growing Degree Days 28 (Base 50)    
Moisture  
Dew Point 59 °F    
Average Humidity 58    
Maximum Humidity 83    
Minimum Humidity 27    
Precipitation  
Precipitation 0.00 in 0.02 in - ()
Sea Level Pressure  
Sea Level Pressure 30.00 in    
Wind  
Wind Speed 6 mph ()    
Max Wind Speed 15 mph    
Max Gust Speed 20 mph    
Visibility 6.2 miles    
Events      
T = Trace of Precipitation, MM = Missing Value Source: Averaged Metar Reports

Daily Weather History Graph

Daily Weather History Graph

Search for Another Location

Airport or City:

Trip Planner

Search our weather history database for the weather conditions in past years. The results will help you decide how hot, cold, wet, or windy it might be!

Date:

Astronomy

Sep. 11, 2013 Rise Set
Actual Time 7:13 AM WEST 7:43 PM WEST
Civil Twilight 6:49 AM WEST 8:07 PM WEST
Nautical Twilight 6:20 AM WEST 8:36 PM WEST
Astronomical Twilight 5:51 AM WEST 9:05 PM WEST
Moon 1:04 PM WEST (9/11) 11:50 PM WEST (9/11)
Length of Visible Light 13h 18m
Length of Day
12h 29m
Waxing Crescent, 36% of the Moon is Illuminated
Sep 11
Waxing Crescent
Sep 12
First Quarter
Sep 19
Full
Sep 27
Last Quarter
Oct 5
New

Hourly Weather History & Observations

Time (WEST) Temp. Heat Index Dew Point Humidity Pressure Visibility Wind Dir Wind Speed Gust Speed Precip Events Conditions
12:00 AM 75.2 °F - 59.0 °F 57% 30.06 in 6.2 mi WSW 5.8 mph - N/A   Partly Cloudy
12:30 AM 75.2 °F - 59.0 °F 57% 30.06 in 6.2 mi West 3.5 mph - N/A   Partly Cloudy
1:00 AM 75.2 °F - 59.0 °F 57% 30.06 in 6.2 mi WSW 4.6 mph - N/A   Partly Cloudy
1:30 AM 73.4 °F - 59.0 °F 61% 30.06 in 6.2 mi SW 5.8 mph - N/A   Partly Cloudy
2:00 AM 73.4 °F - 59.0 °F 61% 30.04 in 6.2 mi SW 5.8 mph - N/A   Partly Cloudy
2:30 AM 71.6 °F - 59.0 °F 64% 30.04 in 6.2 mi WSW 4.6 mph - N/A   Partly Cloudy
3:00 AM 71.6 °F - 59.0 °F 64% 30.04 in 6.2 mi WSW 5.8 mph - N/A   Partly Cloudy
3:30 AM 69.8 °F - 59.0 °F 68% 30.04 in 6.2 mi WSW 6.9 mph - N/A   Partly Cloudy
4:00 AM 69.8 °F - 59.0 °F 68% 30.01 in 6.2 mi WSW 5.8 mph - N/A   Partly Cloudy
4:30 AM 69.8 °F - 59.0 °F 68% 30.01 in 6.2 mi WSW 5.8 mph - N/A   Partly Cloudy
5:00 AM 68.0 °F - 59.0 °F 73% 30.01 in 6.2 mi WSW 6.9 mph - N/A   Partly Cloudy
5:30 AM 68.0 °F - 59.0 °F 73% 30.01 in 6.2 mi WSW 6.9 mph - N/A   Partly Cloudy
6:00 AM 68.0 °F - 60.8 °F 78% 30.01 in 6.2 mi WSW 5.8 mph - N/A   Partly Cloudy
6:30 AM 66.2 °F - 59.0 °F 78% 30.01 in 6.2 mi WSW 5.8 mph - N/A   Partly Cloudy
7:00 AM 66 °F - 60 °F 74% 29.99 in 6 mi West 4.6 mph - -   Scattered Clouds
7:00 AM 66.2 °F - 60.8 °F 83% 30.01 in 6.2 mi West 4.6 mph - N/A   Mostly Cloudy
7:30 AM 66.2 °F - 60.8 °F 83% 30.04 in 6.2 mi WSW 5.8 mph - N/A   Scattered Clouds
8:00 AM 66.2 °F - 60.8 °F 83% 30.04 in 6.2 mi WSW 5.8 mph - N/A   Scattered Clouds
8:30 AM 66.2 °F - 60.8 °F 83% 30.04 in 6.2 mi WSW 6.9 mph - N/A   Scattered Clouds
9:00 AM 68.0 °F - 60.8 °F 78% 30.04 in 6.2 mi West 8.1 mph - N/A   Scattered Clouds
9:30 AM 69.8 °F - 60.8 °F 73% 30.04 in 6.2 mi West 8.1 mph - N/A   Scattered Clouds
10:00 AM 70 °F - 61 °F 65% 29.99 in 6 mi West 5.8 mph - -   Scattered Clouds
10:00 AM 69.8 °F - 60.8 °F 73% 30.04 in 6.2 mi West 6.9 mph - N/A   Scattered Clouds
10:30 AM 71.6 °F - 60.8 °F 69% 30.04 in 6.2 mi West 8.1 mph - N/A   Scattered Clouds
11:00 AM 73.4 °F - 59.0 °F 61% 30.04 in 6.2 mi West 8.1 mph - N/A   Scattered Clouds
11:30 AM 73.4 °F - 60.8 °F 65% 30.04 in 6.2 mi West 8.1 mph - N/A   Scattered Clouds
12:00 PM 75.2 °F - 60.8 °F 61% 30.04 in 6.2 mi West 5.8 mph - N/A   Scattered Clouds
12:30 PM 77.0 °F - 59.0 °F 54% 30.01 in 6.2 mi West 8.1 mph - N/A   Scattered Clouds
1:00 PM 79 °F - 59 °F 40% 29.93 in 6 mi West 6.9 mph - -   Scattered Clouds
1:00 PM 78.8 °F - 59.0 °F 51% 30.01 in 6.2 mi WNW 6.9 mph - N/A   Mostly Cloudy
1:30 PM 80.6 °F 81.1 °F 59.0 °F 48% 30.01 in 6.2 mi WNW 5.8 mph - N/A   Mostly Cloudy
2:00 PM 80.6 °F 81.5 °F 60.8 °F 51% 29.98 in 6.2 mi Variable 6.9 mph 19.6 mph N/A   Mostly Cloudy
2:30 PM 82.4 °F 82.5 °F 59.0 °F 45% 29.98 in 6.2 mi WNW 6.9 mph - N/A   Mostly Cloudy
3:00 PM 84.2 °F 83.5 °F 57.2 °F 40% 29.98 in 6.2 mi NW 6.9 mph - N/A   Mostly Cloudy
3:30 PM 84.2 °F 83.8 °F 59.0 °F 42% 29.98 in 6.2 mi WNW 6.9 mph - N/A   Mostly Cloudy
4:00 PM 85 °F - 57 °F 28% 29.86 in 6 mi West 3.5 mph - -   Scattered Clouds
4:00 PM 86.0 °F 84.9 °F 57.2 °F 37% 29.95 in 6.2 mi NNW 3.5 mph - N/A   Mostly Cloudy
4:30 PM 86.0 °F 84.9 °F 57.2 °F 37% 29.95 in 6.2 mi West 4.6 mph - N/A   Mostly Cloudy
5:00 PM 86.0 °F 84.9 °F 57.2 °F 37% 29.95 in 6.2 mi West 5.8 mph - N/A   Mostly Cloudy
5:30 PM 86.0 °F 84.9 °F 57.2 °F 37% 29.95 in 6.2 mi SW 8.1 mph - N/A   Mostly Cloudy
6:00 PM 86.0 °F 84.9 °F 57.2 °F 37% 29.95 in 6.2 mi WSW 8.1 mph - N/A   Mostly Cloudy
6:30 PM 86.0 °F 84.5 °F 55.4 °F 35% 29.95 in 6.2 mi West 8.1 mph - N/A   Mostly Cloudy
7:00 PM 85 °F - 56 °F 27% 29.85 in 6 mi WSW 8.1 mph - -   Scattered Clouds
7:00 PM 86.0 °F 84.9 °F 57.2 °F 37% 29.95 in 6.2 mi WSW 9.2 mph - N/A   Mostly Cloudy
7:30 PM 84.2 °F 83.5 °F 57.2 °F 40% 29.95 in 6.2 mi WSW 8.1 mph - N/A   Scattered Clouds
8:00 PM 82.4 °F 82.5 °F 59.0 °F 45% 29.95 in 6.2 mi WSW 10.4 mph - N/A   Scattered Clouds
8:30 PM 80.6 °F 81.5 °F 60.8 °F 51% 29.95 in 6.2 mi NW 15.0 mph - N/A   Scattered Clouds
9:00 PM 77.0 °F - 60.8 °F 57% 29.98 in 6.2 mi NW 12.7 mph - N/A   Partly Cloudy
9:30 PM 75.2 °F - 59.0 °F 57% 30.01 in 6.2 mi NW 10.4 mph - N/A   Partly Cloudy
10:00 PM 75.2 °F - 60.8 °F 61% 30.01 in 6.2 mi NW 10.4 mph - N/A   Partly Cloudy
10:30 PM 73.4 °F - 60.8 °F 65% 30.04 in 6.2 mi West 8.1 mph - N/A   Partly Cloudy
11:00 PM 71.6 °F - 60.8 °F 69% 30.04 in - West 8.1 mph - N/A   Clear
11:30 PM 71.6 °F - 59.0 °F 64% 30.04 in - WSW 6.9 mph - N/A   Clear